Total_Precipitation_Accumulation
2.29 2.31 2.30 2.35 2.45 2.51 2.63 2.94 3.23 3.13 2.81 2.52 2.42 2.34 2.28 2.31 2.49 2.18 2.01 1.96 1.80 1.74 1.77 1.75 1.79 1.92 2.05 2.06 2.06 2.17 2.29 2.45 2.64 2.80 2.97 3.20 3.39 3.52
2.10 2.06 2.01 2.03 2.18 2.22 2.31 2.51 2.82 3.06 2.85 2.35 2.27 2.24 2.23 2.11 2.39 2.12 2.05 2.04 1.73 1.55 1.50 1.52 1.57 1.63 1.70 1.73 1.76 1.82 1.91 2.04 2.24 2.43 2.61 2.81 3.03 3.25
1.89 1.88 1.88 1.96 2.08 2.07 2.14 2.26 2.45 2.68 2.80 2.50 2.33 2.26 2.24 2.28 2.32 2.16 2.00 1.86 1.66 1.55 1.36 1.33 1.36 1.45 1.45 1.46 1.56 1.63 1.67 1.78 1.96 2.15 2.36 2.56 2.74 2.88
1.75 1.82 1.81 1.86 1.95 2.00 2.11 2.22 2.38 2.57 2.66 2.70 2.53 2.34 2.25 2.25 2.31 2.27 1.97 1.75 1.65 1.67 1.44 1.31 1.23 1.22 1.30 1.30 1.33 1.44 1.56 1.66 1.78 1.91 2.06 2.21 2.36 2.49
1.65 1.72 1.77 1.86 1.86 1.91 1.98 2.03 2.17 2.28 2.49 2.57 2.46 2.33 2.25 2.16 2.34 2.18 2.04 2.15 1.76 1.62 1.47 1.35 1.25 1.21 1.41 1.45 1.24 1.25 1.34 1.48 1.55 1.64 1.80 1.92 2.00 2.05
1.46 1.56 1.61 1.68 1.71 1.82 1.80 1.88 1.99 2.19 2.38 2.47 2.32 2.16 2.11 2.16 2.30 2.27 2.19 2.11 1.96 1.59 1.53 1.42 1.32 1.31 1.61 2.12 1.61 1.31 1.28 1.38 1.47 1.50 1.54 1.58 1.59 1.62
1.34 1.36 1.38 1.41 1.43 1.47 1.46 1.67 1.88 2.07 2.20 2.30 2.22 2.14 2.09 2.22 2.20 2.13 2.12 2.08 1.93 1.74 1.69 1.52 1.62 1.86 2.35 2.94 2.44 1.82 1.59 1.48 1.42 1.46 1.47 1.45 1.40 1.37
1.41 1.36 1.23 1.19 1.16 1.10 1.16 1.32 1.56 1.81 2.07 2.20 2.16 2.15 2.11 2.17 2.26 2.23 2.21 2.26 2.20 1.83 1.75 1.67 1.84 2.61 3.24 3.49 3.02 2.17 1.84 1.62 1.50 1.54 1.59 1.53 1.37 1.26
1.41 1.39 1.14 1.02 1.12 1.10 1.15 1.17 1.28 1.42 1.70 2.01 2.13 2.06 2.10 2.18 2.37 2.43 2.38 2.36 2.29 1.99 2.00 1.96 2.10 2.89 3.08 3.18 3.04 2.23 1.90 1.74 1.68 1.75 1.76 1.60 1.39 1.25
1.11 1.21 1.27 1.26 1.15 1.18 1.19 1.27 1.34 1.43 1.51 1.65 1.90 1.90 1.89 2.09 2.31 2.36 2.36 2.31 2.23 2.05 2.06 2.17 2.28 2.77 2.70 2.75 2.77 2.23 1.91 1.78 1.74 1.76 1.72 1.52 1.36 1.25
0.90 0.95 1.02 1.07 1.06 1.11 1.21 1.42 1.47 1.57 1.53 1.69 1.72 1.67 1.71 1.80 1.84 2.00 2.31 2.51 2.41 2.07 1.90 2.04 2.19 2.51 2.57 2.57 2.39 2.18 1.97 1.85 1.73 1.69 1.61 1.39 1.27 1.23
1.00 1.03 0.96 0.83 0.88 1.00 1.22 1.51 1.67 1.70 1.72 1.84 1.83 1.80 1.70 1.69 1.66 1.77 2.19 2.51 2.52 2.26 1.89 1.90 2.04 2.27 2.54 2.46 2.21 2.03 2.02 2.04 1.94 1.82 1.64 1.37 1.17 1.11
0.97 1.01 0.99 0.84 0.75 0.82 1.04 1.29 1.49 1.56 1.79 2.05 1.94 1.77 1.74 1.73 1.70 1.70 1.92 2.13 2.17 2.10 1.81 1.90 2.06 2.17 2.31 2.32 2.22 2.19 2.08 2.00 1.99 2.07 1.94 1.60 1.29 1.09
1.00 1.00 0.99 0.93 0.86 0.92 1.05 1.20 1.35 1.54 1.77 1.91 1.73 1.58 1.49 1.50 1.57 1.55 1.56 1.61 1.69 1.70 1.68 1.85 2.13 2.30 2.30 2.19 2.26 2.23 2.21 2.17 2.10 2.09 2.09 1.93 1.58 1.35
0.86 0.95 0.91 0.87 0.95 1.15 1.27 1.38 1.53 1.76 1.82 1.70 1.59 1.47 1.37 1.42 1.42 1.41 1.41 1.48 1.48 1.34 1.30 1.50 1.86 2.12 2.26 2.21 2.21 2.20 2.29 2.42 2.34 2.28 2.21 2.02 1.79 1.54
0.83 0.99 1.04 1.03 1.16 1.33 1.46 1.55 1.67 1.78 1.67 1.54 1.49 1.41 1.31 1.38 1.43 1.39 1.51 1.57 1.59 1.49 1.39 1.42 1.63 1.95 2.12 2.10 2.18 2.23 2.25 2.56 2.60 2.42 2.39 2.32 2.05 1.79
0.83 0.99 1.12 1.16 1.25 1.39 1.50 1.56 1.61 1.63 1.57 1.47 1.42 1.37 1.31 1.30 1.27 1.24 1.39 1.51 1.55 1.53 1.51 1.50 1.54 1.67 1.82 1.94 2.14 2.22 2.32 2.51 2.60 2.39 2.32 2.41 2.27 1.96
0.89 1.13 1.21 1.19 1.22 1.29 1.39 1.49 1.49 1.47 1.45 1.48 1.50 1.49 1.44 1.33 1.28 1.21 1.25 1.35 1.47 1.46 1.47 1.46 1.47 1.51 1.64 1.75 1.90 2.03 2.10 2.28 2.30 2.15 1.97 2.05 2.22 2.00
0.90 1.11 1.22 1.24 1.24 1.26 1.29 1.37 1.42 1.42 1.37 1.40 1.44 1.41 1.33 1.26 1.23 1.21 1.21 1.31 1.36 1.30 1.23 1.21 1.27 1.38 1.54 1.78 1.83 1.84 1.89 1.94 1.95 1.93 1.79 1.70 1.84 1.83
0.88 1.08 1.19 1.22 1.24 1.27 1.27 1.25 1.30 1.37 1.33 1.30 1.35 1.33 1.26 1.22 1.24 1.26 1.25 1.21 1.24 1.19 1.15 1.10 1.11 1.22 1.41 1.61 1.88 1.99 1.75 1.59 1.57 1.68 1.67 1.62 1.72 1.74
0.84 0.96 1.07 1.14 1.13 1.15 1.21 1.23 1.26 1.31 1.28 1.27 1.29 1.30 1.28 1.27 1.22 1.15 1.11 1.02 1.06 1.11 1.11 1.12 1.10 1.06 1.06 1.21 1.47 1.72 1.75 1.61 1.48 1.47 1.47 1.55 1.57 1.46
0.80 0.89 0.99 1.03 1.03 1.00 1.01 1.04 1.08 1.11 1.13 1.19 1.23 1.19 1.13 1.11 1.06 1.01 1.01 1.03 1.06 1.09 1.07 1.02 0.98 1.00 1.08 1.24 1.39 1.51 1.58 1.45 1.36 1.34 1.32 1.27 1.24 1.27
0.91 0.93 0.96 0.98 0.99 0.97 0.95 0.93 0.95 1.00 1.03 1.05 1.10 1.09 1.01 0.97 0.93 0.88 0.86 0.87 0.90 0.92 0.96 1.00 1.03 1.06 1.11 1.15 1.19 1.25 1.29 1.28 1.21 1.18 1.26 1.25 1.12 1.14